EW6379 Weather Reports


time (UTC)temp
F
wind
direction
speed
knots
gust
knots
rain 1hr
in
rain 24hr
in
rain mn
in
humidity
%
barometer
mb
20260506211555 85 0.9 4.3 0.00 0.00 0.00 25 1006.7
20260506210054 83 1.7 7.8 0.00 0.00 0.00 27 1006.7
20260506204554 84 1.7 5.2 0.00 0.00 0.00 27 1006.9
20260506203051 84 0.9 4.3 0.00 0.00 0.00 29 1007.1
20260506201547 82 0.9 4.3 0.00 0.00 0.00 30 1007.1
20260506200047 81 1.7 7.0 0.00 0.00 0.00 30 1007.4
20260506194547 81 0.9 8.7 0.00 0.00 0.00 31 1007.5
20260506193042 81 1.7 5.2 0.00 0.00 0.00 32 1007.8
20260506191542 79 0.9 5.2 0.00 0.00 0.00 31 1008.0
20260506190037 79 0.0 4.3 0.00 0.00 0.00 33 1008.2
20260506184545 77 1.7 6.1 0.00 0.00 0.00 34 1008.3
20260506183038 75 0.9 5.2 0.00 0.00 0.00 37 1008.4
20260506181537 75 0.9 5.2 0.00 0.00 0.00 38 1008.7
20260506180027 72 0.0 4.3 0.00 0.00 0.00 39 1008.8
20260506174525 70 0.0 4.3 0.00 0.00 0.00 45 1008.9
20260506173020 68 3.5 6.1 0.00 0.00 0.00 50 1009.0
20260506171519 66 1.7 7.8 0.00 0.00 0.00 49 1009.2
20260506170018 65 4.3 8.7 0.00 0.00 0.00 49 1009.2
20260506164518 65 4.3 7.8 0.00 0.00 0.00 50 1009.3
20260506163018 64 3.5 7.8 0.00 0.00 0.00 52 1009.4
20260506161518 62 6.1 8.7 0.00 0.00 0.00 53 1009.4
20260506160017 62 3.5 7.0 0.00 0.00 0.00 54 1009.6
20260506154515 61 3.5 7.0 0.00 0.00 0.00 57 1009.5
20260506153020 61 3.5 6.1 0.00 0.00 0.00 57 1009.6
20260506151515 60 2.6 6.1 0.00 0.00 0.00 59 1009.7
20260506150014 58 3.5 6.1 0.00 0.00 0.00 62 1009.7
20260506144516 59 3.5 6.1 0.00 0.00 0.00 64 1009.6
20260506143014 59 1.7 3.5 0.00 0.00 0.00 59 1009.4
20260506141509 59 0.0 3.5 0.00 0.00 0.00 60 1009.2
20260506140011 60 0.0 2.6 0.00 0.00 0.00 59 1009.3
20260506134507 58 0.0 2.6 0.00 0.00 0.00 61 1009.1
20260506133006 58 0.0 0.0 0.00 0.00 0.00 61 1009.2
20260506131505 57 0.0 0.0 0.00 0.00 0.00 62 1009.1
20260506130003 56 0.0 0.0 0.00 0.00 0.00 64 1008.9
20260506124501 55 0.0 0.0 0.00 0.00 0.00 65 1008.8
20260506123101 55 0.0 0.0 0.00 0.00 0.00 63 1008.8
20260506121555 57 0.0 0.9 0.00 0.00 0.00 60 1008.6
20260506120053 58 0.0 3.5 0.00 0.00 0.00 58 1008.5
20260506114553 58 1.7 3.5 0.00 0.00 0.00 58 1008.4
20260506113051 58 0.0 1.7 0.00 0.00 0.00 58 1008.4
20260506111548 58 0.0 1.7 0.00 0.00 0.00 59 1008.4
20260506110045 59 0.0 0.0 0.00 0.00 0.00 56 1008.4
20260506104543 60 0.0 0.0 0.00 0.00 0.00 55 1008.3
20260506103051 60 0.0 2.6 0.00 0.00 0.00 54 1008.1
20260506101538 61 0.0 4.3 0.00 0.00 0.00 53 1008.2
20260506100038 61 1.7 3.5 0.00 0.00 0.00 53 1008.1
20260506094538 62 0.0 5.2 0.00 0.00 0.00 52 1008.1
20260506093032 61 0.0 0.0 0.00 0.00 0.00 52 1007.9
20260506091530 62 0.0 3.5 0.00 0.00 0.00 51 1007.8
20260506090029 63 0.0 3.5 0.00 0.00 0.00 48 1007.8
20260506084522 64 0.0 2.6 0.00 0.00 0.00 46 1007.7
20260506083020 65 0.9 1.7 0.00 0.00 0.00 44 1007.6
20260506081520 67 0.0 0.0 0.00 0.00 0.00 43 1007.5
20260506073011 68 0.0 0.0 0.00 0.00 0.00 41 1007.2
20260506071509 68 0.0 0.0 0.00 0.00 0.00 41 1007.2
20260506061505 70 0.0 3.5 0.00 0.00 0.00 38 1006.9
20260506044601 72 2.6 6.1 0.00 0.00 0.00 35 1006.5
20260506043102 71 0.9 6.1 0.00 0.00 0.00 37 1006.4
20260506041605 71 0.0 0.9 0.00 0.00 0.00 37 1006.3
20260506040059 73 0.0 2.6 0.00 0.00 0.00 33 1006.0
20260506034615 73 1.7 4.3 0.00 0.00 0.00 34 1005.9
20260506033058 74 0.0 0.0 0.00 0.00 0.00 32 1005.7
20260506031608 76 2.6 4.3 0.00 0.00 0.00 30 1005.6
20260506030057 76 0.0 0.0 0.00 0.00 0.00 30 1005.4
20260506024616 78 0.0 0.0 0.00 0.00 0.00 28 1005.5
20260506023056 79 0.0 0.0 0.00 0.00 0.00 26 1005.4
20260506021557 81 0.0 0.0 0.00 0.00 0.00 26 1005.4
20260506020057 80 0.0 0.0 0.00 0.00 0.00 27 1005.5
20260506014555 80 0.0 3.5 0.00 0.00 0.00 27 1005.5
20260506013107 80 1.7 3.5 0.00 0.00 0.00 26 1005.5
20260506011604 81 1.7 3.5 0.00 0.00 0.00 25 1005.5
20260506010045 85 0.0 0.0 0.00 0.00 0.00 23 1005.6
20260506004541 83 0.0 2.6 0.00 0.00 0.00 24 1005.7
20260506003038 84 0.0 4.3 0.00 0.00 0.00 24 1005.8
20260506001537 82 0.0 5.2 0.00 0.00 0.00 25 1005.9
20260506000033 83 0.0 4.3 0.00 0.00 0.00 24 1006.1
20260505234535 82 0.0 5.2 0.00 0.00 0.00 24 1006.3
20260505233028 83 0.0 0.0 0.00 0.00 0.00 24 1006.4
20260505231527 81 4.3 8.7 0.00 0.00 0.00 24 1006.5
20260505230041 84 0.0 3.5 0.00 0.00 0.00 25 1006.6
20260505224524 83 0.0 4.3 0.00 0.00 0.00 24 1006.9
20260505223025 82 0.0 6.1 0.00 0.00 0.00 25 1007.0
20260505221519 81 4.3 7.0 0.00 0.00 0.00 25 1007.1
20260505220019 80 3.5 8.7 0.00 0.00 0.00 24 1007.4
20260505214519 81 0.9 7.0 0.00 0.00 0.00 25 1007.6
20260505213014 80 1.7 9.6 0.00 0.00 0.00 26 1007.8